GW2455 Weather Reports


Display with metric or nautical units.
time (UTC)temp
F
wind
direction
speed
MPH
gust
MPH
rain 1hr
in
rain 24hr
in
rain mn
in
humidity
%
barometer
mb
20260506191508 58 274 8.0 12.0 0.02 0.00 0.02 89 1018.5
20260506191007 58 264 7.0 12.0 0.02 0.00 0.01 89 1018.7
20260506190506 58 239 8.0 12.0 0.01 0.00 0.00 89 1018.6
20260506190006 58 273 7.0 11.0 0.00 0.00 0.00 88 1018.7
20260506185506 58 247 7.0 11.0 0.00 0.00 0.00 88 1018.8
20260506185004 58 244 7.0 13.0 0.00 0.00 0.00 88 1019.0
20260506184505 58 226 9.0 16.0 0.00 0.00 0.00 87 1019.1
20260506184001 58 242 11.0 16.0 0.00 0.00 0.00 86 1019.2
20260506183458 58 260 11.0 17.0 0.00 0.00 0.00 85 1019.3
20260506182956 59 251 12.0 17.0 0.00 0.00 0.00 83 1019.4
20260506182452 59 233 10.0 15.0 0.00 0.00 0.00 83 1019.4
20260506181950 59 249 11.0 15.0 0.00 0.00 0.00 83 1019.5
20260506181446 59 239 9.0 15.0 0.00 0.00 0.00 83 1019.5
20260506180943 59 236 9.0 16.0 0.00 0.00 0.00 83 1019.6
20260506180439 59 260 11.0 16.0 0.00 0.00 0.00 83 1019.7
20260506175935 59 261 11.0 15.0 0.00 0.00 0.00 82 1019.7
20260506175436 59 253 10.0 15.0 0.00 0.00 0.00 82 1019.6
20260506174933 59 257 9.0 14.0 0.00 0.00 0.00 82 1019.7
20260506174433 59 246 10.0 14.0 0.00 0.00 0.00 81 1019.8
20260506173933 59 253 11.0 14.0 0.00 0.00 0.00 80 1019.9
20260506173753 60 251 9.0 12.0 0.00 0.00 0.00 80 1019.9
20260506172933 60 244 6.0 11.0 0.00 0.00 0.00 79 1019.9
20260506172433 60 261 7.0 12.0 0.00 0.00 0.00 78 1020.1
20260506171934 60 258 7.0 12.0 0.00 0.00 0.00 78 1020.2
20260506171434 60 273 8.0 12.0 0.00 0.00 0.00 78 1020.2
20260506170934 60 254 8.0 11.0 0.00 0.00 0.00 78 1020.2
20260506170433 60 253 7.0 12.0 0.00 0.00 0.00 78 1020.3
20260506170249 60 244 9.0 13.0 0.00 0.00 0.00 77 1020.4
20260506165436 60 273 8.0 13.0 0.00 0.00 0.00 77 1020.5
20260506164934 60 257 7.0 11.0 0.00 0.00 0.00 76 1020.5
20260506164433 60 249 7.0 11.0 0.00 0.00 0.00 76 1020.5
20260506164250 60 280 9.0 11.0 0.00 0.00 0.00 76 1020.6
20260506163436 60 253 8.0 11.0 0.00 0.00 0.00 76 1020.6
20260506162934 60 250 8.0 12.0 0.00 0.00 0.00 75 1020.8
20260506162433 61 239 7.0 13.0 0.00 0.00 0.00 76 1020.9
20260506161932 60 242 7.0 13.0 0.00 0.00 0.00 75 1021.0
20260506161431 60 257 9.0 13.0 0.00 0.00 0.00 75 1021.1
20260506161302 60 258 9.0 12.0 0.00 0.00 0.00 74 1021.1
20260506160431 60 234 8.0 11.0 0.00 0.00 0.00 75 1021.2
20260506155930 60 270 8.0 11.0 0.00 0.00 0.00 75 1021.3
20260506155824 60 268 8.0 12.0 0.00 0.00 0.00 75 1021.4
20260506154920 60 250 8.0 12.0 0.00 0.00 0.00 75 1021.4
20260506154417 60 251 8.0 12.0 0.00 0.00 0.00 76 1021.6
20260506153918 60 246 8.0 11.0 0.00 0.00 0.00 76 1021.5
20260506153416 60 249 6.0 10.0 0.00 0.00 0.00 77 1021.7
20260506152914 60 244 6.0 10.0 0.00 0.00 0.00 77 1021.8
20260506152416 60 251 8.0 12.0 0.00 0.00 0.00 77 1021.9
20260506151911 60 247 7.0 12.0 0.00 0.00 0.00 76 1022.0
20260506151410 60 257 9.0 12.0 0.00 0.00 0.00 76 1022.1
20260506150907 61 242 7.0 10.0 0.00 0.00 0.00 77 1022.1
20260506150405 60 249 8.0 10.0 0.00 0.00 0.00 75 1022.1
20260506145906 60 254 8.0 11.0 0.00 0.00 0.00 75 1022.3
20260506145404 60 264 8.0 11.0 0.00 0.00 0.00 76 1022.2
20260506144904 60 273 5.0 11.0 0.00 0.00 0.00 76 1022.3
20260506144405 60 201 7.0 11.0 0.00 0.00 0.00 76 1022.4
20260506143904 60 243 7.0 12.0 0.00 0.00 0.00 75 1022.4
20260506143404 60 275 8.0 12.0 0.00 0.00 0.00 75 1022.5
20260506143236 60 249 7.0 13.0 0.00 0.00 0.00 76 1022.6
20260506142405 60 256 9.0 13.0 0.00 0.00 0.00 76 1022.6
20260506142215 60 236 5.0 11.0 0.00 0.00 0.00 77 1022.7
20260506141404 60 249 7.0 11.0 0.00 0.00 0.00 77 1022.8
20260506140903 60 223 6.0 11.0 0.00 0.00 0.00 77 1022.8
20260506140401 60 240 7.0 12.0 0.00 0.00 0.00 76 1022.8
20260506135859 60 237 7.0 12.0 0.00 0.00 0.00 75 1022.9
20260506135357 60 222 9.0 11.0 0.00 0.00 0.00 76 1023.0
20260506134856 60 233 8.0 11.0 0.00 0.00 0.00 75 1023.1
20260506134357 60 213 7.0 11.0 0.00 0.00 0.00 75 1023.3
20260506133852 60 232 8.0 11.0 0.00 0.00 0.00 75 1023.4
20260506133352 60 210 8.0 11.0 0.00 0.00 0.00 75 1023.4
20260506132855 60 226 7.0 11.0 0.00 0.00 0.00 75 1023.4
20260506132349 60 216 9.0 11.0 0.00 0.00 0.00 74 1023.4
20260506131850 60 219 8.0 11.0 0.00 0.00 0.00 74 1023.5
20260506131722 60 225 8.0 11.0 0.00 0.00 0.00 74 1023.6
20260506131206 60 205 6.0 11.0 0.00 0.00 0.00 74 1023.6
20260506130653 60 223 6.0 11.0 0.00 0.00 0.00 74 1023.7
20260506130200 60 203 7.0 12.0 0.00 0.00 0.00 73 1023.8
20260506125341 60 209 8.0 12.0 0.00 0.00 0.00 73 1023.8
20260506124840 61 219 8.0 12.0 0.00 0.00 0.00 74 1023.9
20260506124339 61 242 8.0 12.0 0.00 0.00 0.00 72 1023.9
20260506124202 61 232 7.0 11.0 0.00 0.00 0.00 73 1024.0
20260506123337 61 227 7.0 11.0 0.00 0.00 0.00 73 1024.0
20260506123153 61 226 8.0 11.0 0.00 0.00 0.00 73 1024.1
20260506122334 61 203 9.0 11.0 0.00 0.00 0.00 72 1024.1
20260506121833 62 212 6.0 9.0 0.00 0.00 0.00 73 1024.1
20260506121333 62 219 4.0 9.0 0.00 0.00 0.00 73 1024.2
20260506121150 61 216 6.0 9.0 0.00 0.00 0.00 74 1024.2
20260506120333 61 218 7.0 9.0 0.00 0.00 0.00 72 1024.3
20260506120211 61 230 7.0 9.0 0.00 0.00 0.00 73 1024.3
20260506115335 61 202 6.0 9.0 0.00 0.00 0.00 73 1024.3
20260506114835 61 219 7.0 9.0 0.00 0.00 0.00 73 1024.5
20260506114333 61 229 4.0 7.0 0.00 0.00 0.00 73 1024.4
20260506113833 61 218 5.0 7.0 0.00 0.00 0.00 72 1024.4
20260506113334 61 225 5.0 6.0 0.00 0.00 0.00 73 1024.6
20260506112830 61 196 5.0 7.0 0.00 0.00 0.00 72 1024.6
20260506112330 61 192 5.0 7.0 0.00 0.00 0.00 71 1024.6
20260506111828 61 205 3.0 6.0 0.00 0.00 0.00 73 1024.6
20260506111327 61 194 4.0 6.0 0.00 0.00 0.00 71 1024.7
20260506110825 61 203 4.0 5.0 0.00 0.00 0.00 71 1024.7
20260506110451 60 206 3.0 4.0 0.00 0.00 0.00 70 1024.7
20260506105319 60 242 3.0 4.0 0.00 0.00 0.00 71 1024.7
20260506104821 60 195 3.0 4.0 0.00 0.00 0.00 70 1024.9
20260506104321 60 223 0.0 0.0 0.00 0.00 0.00 69 1024.9
20260506103819 60 203 0.0 0.0 0.00 0.00 0.00 70 1024.9
20260506103321 60 215 0.0 0.0 0.00 0.00 0.00 70 1024.9
20260506103143 60 201 0.0 2.0 0.00 0.00 0.00 70 1025.0
20260506102319 60 208 0.0 3.0 0.00 0.00 0.00 71 1024.9
20260506101819 60 216 2.0 3.0 0.00 0.00 0.00 71 1025.1
20260506101321 59 4 0.0 2.0 0.00 0.00 0.00 70 1025.1
20260506100820 59 4 0.0 0.0 0.00 0.00 0.00 69 1025.1
20260506100318 59 4 0.0 0.0 0.00 0.00 0.00 70 1025.2
20260506095817 59 4 0.0 0.0 0.00 0.00 0.00 69 1025.2
20260506095639 59 4 0.0 0.0 0.00 0.00 0.00 70 1025.2
20260506094815 59 4 0.0 0.0 0.00 0.00 0.00 70 1025.2
20260506094313 59 4 0.0 0.0 0.00 0.00 0.00 69 1025.3
20260506093811 59 4 0.0 0.0 0.00 0.00 0.00 70 1025.3
20260506093311 59 4 0.0 0.0 0.00 0.00 0.00 69 1025.3
20260506092809 60 4 0.0 0.0 0.00 0.00 0.00 69 1025.3
20260506092628 59 4 0.0 0.0 0.00 0.00 0.00 69 1025.5
20260506091806 59 4 0.0 0.0 0.00 0.00 0.00 70 1025.5
20260506091600 59 4 0.0 0.0 0.00 0.00 0.00 70 1025.4
20260506090805 59 4 0.0 0.0 0.00 0.00 0.00 72 1025.4
20260506090301 58 4 0.0 0.0 0.00 0.00 0.00 73 1025.3
20260506090143 58 4 0.0 0.0 0.00 0.00 0.00 74 1025.3
20260506085256 58 4 0.0 0.0 0.00 0.00 0.00 75 1025.4
20260506084755 58 4 0.0 0.0 0.00 0.00 0.00 77 1025.5
20260506084259 58 4 0.0 0.0 0.00 0.00 0.00 78 1025.4
20260506083105 57 6 1.0 4.0 0.00 0.00 0.00 77 1025.5
20260506082246 57 10 2.0 4.0 0.00 0.00 0.00 78 1025.6
20260506082106 57 24 3.0 4.0 0.00 0.00 0.00 78 1025.5
20260506081407 56 30 3.0 4.0 0.00 0.00 0.00 79 1025.5
20260506080243 56 21 4.0 4.0 0.00 0.00 0.00 79 1025.8
20260506073126 55 20 5.0 7.0 0.00 0.00 0.00 79 1025.6
20260506072233 55 13 6.0 7.0 0.00 0.00 0.00 79 1025.7
20260506071734 55 18 6.0 7.0 0.00 0.00 0.00 79 1025.7
20260506071232 55 17 6.0 7.0 0.00 0.00 0.00 79 1025.7
20260506070733 55 6 6.0 7.0 0.00 0.00 0.00 79 1025.7
20260506070555 55 17 6.0 7.0 0.00 0.00 0.00 79 1025.7
20260506061724 53 18 7.0 10.0 0.00 0.00 0.00 80 1025.6
20260506061550 53 11 8.0 10.0 0.00 0.00 0.00 80 1025.7
20260506060723 53 30 7.0 10.0 0.00 0.00 0.00 80 1025.6
20260506060544 53 17 8.0 11.0 0.00 0.00 0.00 80 1025.6
20260506051208 55 14 7.0 9.0 0.00 0.00 0.00 79 1026.0
20260506050706 55 20 7.0 9.0 0.00 0.00 0.00 79 1026.0
20260506050525 55 21 7.0 9.0 0.00 0.00 0.00 79 1026.2
20260506044701 54 20 8.0 9.0 0.00 0.00 0.00 79 1026.4
20260506044518 54 24 7.0 9.0 0.00 0.00 0.00 79 1026.4
20260506043655 54 15 6.0 9.0 0.00 0.00 0.00 79 1026.4
20260506043511 54 27 7.0 9.0 0.00 0.00 0.00 80 1026.5
20260506042653 54 30 7.0 9.0 0.00 0.00 0.00 80 1026.5
20260506042152 54 25 6.0 9.0 0.00 0.00 0.00 80 1026.6
20260506041651 54 20 6.0 9.0 0.00 0.00 0.00 80 1026.7
20260506041143 54 20 6.0 9.0 0.00 0.00 0.00 80 1026.7
20260506040741 54 30 6.0 9.0 0.00 0.00 0.00 80 1026.8
20260506035635 54 28 6.0 10.0 0.00 0.00 0.00 80 1026.9
20260506035135 54 20 8.0 11.0 0.00 0.00 0.00 81 1026.9
20260506034640 53 11 9.0 11.0 0.00 0.00 0.00 81 1026.9
20260506034137 53 20 9.0 10.0 0.00 0.00 0.00 80 1026.8
20260506033635 53 18 9.0 10.0 0.00 0.00 0.00 80 1026.8
20260506033135 53 359 7.0 10.0 0.00 0.00 0.00 80 1026.7
20260506032635 54 357 6.0 9.0 0.00 0.00 0.00 79 1026.7
20260506032136 54 357 7.0 9.0 0.00 0.00 0.00 79 1026.7
20260506031634 54 10 6.0 10.0 0.00 0.00 0.00 79 1026.8
20260506031135 54 8 7.0 10.0 0.00 0.00 0.00 79 1026.8
20260506030635 54 15 9.0 10.0 0.00 0.00 0.00 79 1026.9
20260506030133 54 11 8.0 10.0 0.00 0.00 0.00 80 1027.0
20260506025633 54 15 8.0 10.0 0.00 0.00 0.00 80 1027.1
20260506025130 54 17 9.0 10.0 0.00 0.00 0.00 80 1027.2
20260506024629 54 21 8.0 10.0 0.00 0.00 0.00 81 1027.2
20260506024128 54 27 7.0 10.0 0.00 0.00 0.00 81 1027.3
20260506023625 54 27 8.0 10.0 0.00 0.00 0.00 81 1027.3
20260506023122 54 27 8.0 11.0 0.00 0.00 0.00 81 1027.5
20260506022621 54 20 9.0 11.0 0.00 0.00 0.00 81 1027.4
20260506022120 54 20 9.0 11.0 0.00 0.00 0.00 81 1027.4
20260506021959 54 20 10.0 11.0 0.00 0.00 0.00 81 1027.3
20260506021114 54 13 9.0 11.0 0.00 0.00 0.00 81 1027.3
20260506020637 53 17 9.0 11.0 0.00 0.00 0.00 81 1027.2
20260506020620 53 20 9.0 11.0 0.00 0.00 0.00 81 1027.3
20260506015107 53 23 9.0 10.0 0.00 0.00 0.00 81 1027.3
20260506014610 53 23 9.0 11.0 0.00 0.00 0.00 81 1027.3
20260506014108 53 13 9.0 11.0 0.00 0.00 0.00 81 1027.4
20260506013619 54 21 10.0 11.0 0.00 0.00 0.00 81 1027.4
20260506013421 54 18 9.0 11.0 0.00 0.00 0.00 80 1027.4
20260506012609 54 4 7.0 10.0 0.00 0.00 0.00 80 1027.4
20260506012104 54 359 9.0 10.0 0.00 0.00 0.00 80 1027.4
20260506011605 54 6 8.0 10.0 0.00 0.00 0.00 80 1027.3
20260506011105 54 8 8.0 10.0 0.00 0.00 0.00 80 1027.3
20260506010605 54 15 7.0 10.0 0.00 0.00 0.00 80 1027.4
20260506010457 54 4 6.0 11.0 0.00 0.00 0.00 80 1027.4
20260506005602 54 4 7.0 11.0 0.00 0.00 0.00 80 1027.4
20260506005054 54 13 8.0 10.0 0.00 0.00 0.00 80 1027.3
20260506004553 55 18 7.0 9.0 0.00 0.00 0.00 79 1027.5
20260506004051 55 1 5.0 9.0 0.00 0.00 0.00 80 1027.7
20260506003549 55 4 6.0 9.0 0.00 0.00 0.00 80 1027.7
20260506003048 55 24 6.0 9.0 0.00 0.00 0.00 80 1027.7
20260506002547 55 359 6.0 9.0 0.00 0.00 0.00 80 1027.7
20260506002041 55 13 6.0 10.0 0.00 0.00 0.00 80 1027.7
20260506001541 55 4 8.0 10.0 0.00 0.00 0.00 79 1027.8
20260506001038 55 23 9.0 10.0 0.00 0.00 0.00 79 1027.8
20260506000855 55 11 8.0 10.0 0.00 0.00 0.00 78 1028.0
20260506000038 56 14 6.0 7.0 0.00 0.00 0.00 78 1028.0
20260505235539 56 4 6.0 7.0 0.00 0.00 0.00 78 1028.1
20260505235355 56 10 6.0 9.0 0.00 0.00 0.00 77 1028.1
20260505234535 56 23 6.0 9.0 0.00 0.00 0.00 77 1028.1
20260505234033 56 23 6.0 9.0 0.00 0.00 0.00 77 1028.1
20260505233533 57 30 6.0 9.0 0.00 0.00 0.00 76 1028.2
20260505233031 57 30 6.0 9.0 0.00 0.00 0.00 76 1028.4
20260505232533 57 30 6.0 9.0 0.00 0.00 0.00 76 1028.4
20260505232026 57 27 6.0 7.0 0.00 0.00 0.00 76 1028.4
20260505231519 57 30 5.0 7.0 0.00 0.00 0.00 76 1028.5
20260505231018 57 30 5.0 9.0 0.00 0.00 0.00 76 1028.6
20260505230830 58 34 7.0 10.0 0.00 0.00 0.00 76 1028.5
20260505230016 58 40 7.0 10.0 0.00 0.00 0.00 76 1028.6
20260505225513 57 30 6.0 9.0 0.00 0.00 0.00 76 1028.6
20260505225327 58 30 5.0 7.0 0.00 0.00 0.00 76 1028.7
20260505224828 58 30 4.0 7.0 0.00 0.00 0.00 76 1028.7
20260505224007 58 30 6.0 9.0 0.00 0.00 0.00 76 1028.7
20260505223506 58 23 6.0 10.0 0.00 0.00 0.00 76 1028.6
20260505223327 58 28 6.0 10.0 0.00 0.00 0.00 76 1028.7
20260505222506 58 30 5.0 9.0 0.00 0.00 0.00 77 1028.7
20260505222003 57 30 6.0 9.0 0.00 0.00 0.00 78 1028.8
20260505221501 57 25 6.0 7.0 0.00 0.00 0.00 78 1028.8
20260505221327 57 25 6.0 7.0 0.00 0.00 0.00 78 1028.9
20260505220819 57 20 6.0 7.0 0.00 0.00 0.00 78 1028.7
20260505215955 57 17 6.0 7.0 0.00 0.00 0.00 78 1028.7
20260505215449 57 21 6.0 9.0 0.00 0.00 0.00 78 1028.6
20260505214951 57 17 6.0 10.0 0.00 0.00 0.00 77 1028.4
20260505214446 57 15 6.0 11.0 0.00 0.00 0.00 77 1028.3
20260505213935 58 25 6.0 11.0 0.00 0.00 0.00 76 1028.2
20260505213436 58 36 6.0 10.0 0.00 0.00 0.00 77 1028.1
20260505212935 58 34 7.0 10.0 0.00 0.00 0.00 77 1028.1
20260505212432 58 30 8.0 10.0 0.00 0.00 0.00 78 1028.1
20260505211934 58 30 7.0 11.0 0.00 0.00 0.00 78 1028.1
20260505211749 58 30 7.0 11.0 0.00 0.00 0.00 78 1028.1
20260505210934 58 30 5.0 11.0 0.00 0.00 0.00 79 1028.0
20260505210435 58 25 6.0 10.0 0.00 0.00 0.00 79 1028.2
20260505210253 58 30 6.0 10.0 0.00 0.00 0.00 79 1028.2
20260505205433 58 21 6.0 9.0 0.00 0.00 0.00 79 1028.3
20260505205243 58 24 4.0 9.0 0.00 0.00 0.00 78 1028.4
20260505204747 58 30 5.0 9.0 0.00 0.00 0.00 78 1028.4
20260505203928 58 30 6.0 11.0 0.00 0.00 0.00 78 1028.3
20260505203428 58 30 6.0 11.0 0.00 0.00 0.00 78 1028.3
20260505203242 58 30 7.0 10.0 0.00 0.00 0.00 78 1028.4
20260505202425 59 31 5.0 9.0 0.00 0.00 0.00 78 1028.5
20260505201921 59 25 6.0 10.0 0.00 0.00 0.00 77 1028.5
20260505201421 59 30 7.0 10.0 0.00 0.00 0.00 77 1028.3
20260505200917 59 46 7.0 10.0 0.00 0.00 0.00 77 1028.2
20260505200414 59 24 6.0 10.0 0.00 0.00 0.00 77 1028.1
20260505200232 59 51 6.0 12.0 0.00 0.00 0.00 76 1028.1
20260505195727 59 30 8.0 12.0 0.00 0.00 0.00 76 1028.0
20260505194907 60 30 9.0 12.0 0.00 0.00 0.00 76 1028.0
20260505194408 60 30 7.0 13.0 0.00 0.00 0.00 76 1028.0
20260505193907 60 30 9.0 13.0 0.00 0.00 0.00 76 1028.0
20260505193407 60 47 9.0 14.0 0.00 0.00 0.00 76 1028.1
20260505192909 60 30 11.0 14.0 0.00 0.00 0.00 75 1028.1
20260505192406 60 55 10.0 13.0 0.00 0.00 0.00 75 1028.1
20260505191905 60 30 10.0 14.0 0.00 0.00 0.00 75 1028.1